Location: Poughquag
(41.6090°N, 73.6820°W)
Time: 14:09:55
(UTC-04:00)

ISS - Pass Details

Date: 25 May 2019
Orbit: 410 x 421 km, 51.6° (Epoch: 22 August)

Event Time Altitude Azimuth Distance (km) Brightness Sun altitude
Rises 00:22:05 0° 309° (NW) 2,373 0.7 -27.1°
Reaches altitude 10° 00:24:20 10° 319° (NW) 1,510 -0.3 -27.2°
Enters shadow 00:26:04 23° 342° (NNW) 948 -1.3 -27.2°
